カタログに戻る

ONEWEB-0328

運用中通信PO
NORAD 49197·PAYLOAD·🇬🇧 United Kingdom

打ち上げ Sep 14, 2021 から Baikonur Cosmodrome

Loading…

次のパス (今後24時間)

TLE

最新Source: CelesTrak SupGP

元期: Sep 14, 2026, 23:11 UTC

1 49197C 21083M   26257.96616157  .00003409  00000+0  93466-2 0  2579
2 49197  87.8930 302.3542 0001797  97.9086 297.8043 13.13467306    17

AllMySatでONEWEB-0328をリアルタイム追跡

Download on the App Store